Weather History for Beverly, MA

Change the Weather History Date:

Sunday, May 19, 2013

  Actual Average Record
Temperature  
Mean Temperature 56 °F -  
Max Temperature 66 °F 62 °F 97 °F (1986)
Min Temperature 48 °F 43 °F 15 °F (1987)
Degree Days  
Heating Degree Days 9    
Growing Degree Days 6 (Base 50)    
Moisture  
Dew Point 50 °F    
Average Humidity 85    
Maximum Humidity 100    
Minimum Humidity 63    
Precipitation  
Precipitation 0.11 in - - ()
Sea Level Pressure  
Sea Level Pressure 30.29 in    
Wind  
Wind Speed 3 mph (East)    
Max Wind Speed 10 mph    
Max Gust Speed -    
Visibility 6 miles    
Events Fog , Rain    
Averages and records for this station are not official NWS values.
T = Trace of Precipitation, MM = Missing Value Source: NWS Daily Summary

Daily Weather History Graph

Daily Weather History Graph

Search for Another Location

Airport:

Trip Planner

Search our weather history database for the weather conditions in past years. The results will help you decide how hot, cold, wet, or windy it might be!

Date:

Astronomy

May. 19, 2013 Rise Set
Actual Time 5:17 AM EDT 8:03 PM EDT
Civil Twilight 4:44 AM EDT 8:36 PM EDT
Nautical Twilight 4:03 AM EDT 9:17 PM EDT
Astronomical Twilight 3:16 AM EDT 10:05 PM EDT
Moon 1:56 PM EDT (5/19) 1:47 AM EDT (5/19)
Length of Visible Light 15h 51m
Length of Day
14h 45m
Waxing Gibbous, 65% of the Moon is Illuminated
May 19
Waxing Gibbous
May 25
Full
May 31
Last Quarter
Jun 8
New
Jun 16
First Quarter

Hourly Weather History & Observations

Time (EDT) Temp. Dew Point Humidity Pressure Visibility Wind Dir Wind Speed Gust Speed Precip Events Conditions
12:53 AM 50.0 °F 46.9 °F 89% 30.27 in 10.0 mi Calm Calm - N/A   Partly Cloudy
1:28 AM 50.0 °F 46.4 °F 87% 30.28 in 6.0 mi NNE 3.5 mph - N/A   Scattered Clouds
1:33 AM 50.0 °F 46.4 °F 87% 30.28 in 2.5 mi NNE 3.5 mph - N/A   Mostly Cloudy
1:39 AM 50.0 °F 48.2 °F 94% 30.28 in 0.8 mi North 3.5 mph - N/A   Mostly Cloudy
1:53 AM 50.0 °F 48.0 °F 93% 30.27 in 0.2 mi Calm Calm - N/A Fog Fog
2:19 AM 50.0 °F 48.2 °F 94% 30.29 in 0.2 mi Calm Calm - N/A Fog Fog
2:53 AM 48.9 °F 48.0 °F 97% 30.28 in 0.2 mi Calm Calm - N/A Fog Fog
3:53 AM 48.9 °F 46.9 °F 93% 30.29 in 0.2 mi Calm Calm - N/A Fog Fog
4:34 AM 48.2 °F 48.2 °F 100% 30.30 in 0.2 mi North 4.6 mph - N/A Fog Fog
4:53 AM 50.0 °F 48.0 °F 93% 30.30 in 0.2 mi North 3.5 mph - N/A Fog Fog
5:04 AM 50.0 °F 48.2 °F 94% 30.31 in 0.5 mi Calm Calm - N/A Fog Fog
5:23 AM 50.0 °F 48.2 °F 94% 30.31 in 1.0 mi Calm Calm - N/A   Mist
5:40 AM 50.0 °F 48.2 °F 94% 30.32 in 3.0 mi Calm Calm - N/A   Overcast
5:53 AM 50.0 °F 48.9 °F 96% 30.32 in 3.0 mi NNE 3.5 mph - N/A   Overcast
6:53 AM 51.1 °F 48.9 °F 92% 30.33 in 10.0 mi Calm Calm - N/A   Overcast
7:53 AM 53.6 °F 48.2 °F 82% 30.35 in 10.0 mi West 4.6 mph - N/A   Overcast
8:37 AM 57.2 °F 50.0 °F 77% 30.35 in 10.0 mi West 3.5 mph - N/A   Partly Cloudy
8:53 AM 57.9 °F 50.0 °F 75% 30.34 in 10.0 mi Calm Calm - N/A   Partly Cloudy
9:53 AM 62.1 °F 50.0 °F 65% 30.34 in 10.0 mi Calm Calm - N/A   Clear
10:53 AM 63.0 °F 50.0 °F 63% 30.33 in 10.0 mi Calm Calm - N/A   Clear
11:53 AM 64.9 °F 53.1 °F 65% 30.32 in 10.0 mi SE 8.1 mph - N/A   Mostly Cloudy
12:53 PM 63.0 °F 51.1 °F 65% 30.31 in 10.0 mi NE 10.4 mph - N/A   Clear
1:53 PM 64.0 °F 52.0 °F 65% 30.29 in 10.0 mi NE 9.2 mph - N/A   Clear
2:53 PM 60.8 °F 51.8 °F 72% 30.30 in 10.0 mi NE 10.4 mph - N/A   Clear
3:53 PM 60.8 °F 51.8 °F 72% 30.29 in 10.0 mi Variable 4.6 mph - N/A   Clear
4:53 PM 57.9 °F 50.0 °F 75% 30.27 in 10.0 mi SE 6.9 mph - N/A   Overcast
5:53 PM 57.0 °F 50.0 °F 77% 30.27 in 10.0 mi SE 3.5 mph - N/A   Overcast
6:53 PM 54.0 °F 48.9 °F 83% 30.27 in 10.0 mi SSW 4.6 mph - 0.00 in Rain Light Rain
7:53 PM 53.1 °F 50.0 °F 89% 30.26 in 8.0 mi Calm Calm - 0.01 in Rain Light Rain
8:53 PM 55.0 °F 52.0 °F 89% 30.25 in 10.0 mi SSW 4.6 mph - 0.00 in   Overcast
9:53 PM 55.9 °F 53.1 °F 90% 30.26 in 10.0 mi South 3.5 mph - 0.01 in Rain Light Rain
10:46 PM 57.2 °F 53.6 °F 88% 30.26 in 10.0 mi South 6.9 mph - 0.03 in Rain Light Rain
10:53 PM 57.0 °F 53.1 °F 87% 30.25 in 8.0 mi South 6.9 mph - 0.03 in Rain Light Rain
11:16 PM 55.4 °F 53.6 °F 94% 30.25 in 6.0 mi South 3.5 mph - 0.02 in Rain Light Rain
11:53 PM 55.9 °F 53.1 °F 90% 30.22 in 3.0 mi South 5.8 mph - 0.06 in Rain Light Rain